Location: Unspecified
(0.0000°N, 0.0000°E)
Time: 00:15:07
(UTC+01:00)

Altair - All Passes

Search period start: 19 January 2018 00:00
Search period end: 29 January 2018 00:00
Orbit: 1501 x 1683 km, 47.2° (Epoch: 17 January)

Date Brightness Start Highest point End Pass type
(mag) Time Alt. Az. Time Alt. Az. Time Alt. Az.
19 Jan - 01:43:54 10° N 01:51:45 29° NE 01:59:22 10° ESE visible
19 Jan - 03:47:10 10° NW 03:56:19 58° SW 04:05:18 10° SSE visible
19 Jan - 12:34:12 10° SE 12:35:40 10° SE 12:37:08 10° SE daylight
19 Jan - 14:31:15 10° SSW 14:40:57 63° SE 14:50:54 10° NE daylight
19 Jan - 16:37:31 10° WSW 16:45:44 29° NW 16:54:06 10° N daylight
20 Jan - 01:19:05 10° N 01:26:32 25° NE 01:33:48 10° E night (unlit)
20 Jan - 03:21:52 10° NW 03:31:11 65° SW 03:40:17 10° SSE visible
20 Jan - 05:35:46 10° SW 05:36:16 10° SW 05:36:46 10° SW visible
20 Jan - 14:06:14 10° SSW 14:15:46 56° SE 14:25:34 10° NE daylight
20 Jan - 16:11:57 10° WSW 16:20:30 33° NW 16:29:14 10° NNE daylight
21 Jan - 00:54:19 10° N 01:01:19 23° NE 01:08:08 10° E night (unlit)
21 Jan - 02:56:37 10° NW 03:06:02 73° SW 03:15:14 10° SSE visible
21 Jan - 05:07:45 10° WSW 05:11:00 12° SW 05:14:14 10° SSW visible
21 Jan - 13:41:14 10° SSW 13:50:35 50° SE 14:00:11 10° ENE daylight
21 Jan - 15:46:26 10° WSW 15:55:16 37° NW 16:04:19 10° NNE daylight
22 Jan - 00:29:38 10° N 00:36:05 20° NE 00:42:23 10° E night (unlit)
22 Jan - 02:31:24 10° NW 02:40:54 82° SW 02:50:09 10° SE visible
22 Jan - 04:41:14 10° WSW 04:45:44 14° SW 04:50:14 10° SSW visible
22 Jan - 13:16:17 10° SSW 13:25:24 45° SE 13:34:46 10° ENE daylight
22 Jan - 15:21:00 10° WSW 15:30:03 41° NW 15:39:21 10° NNE daylight
23 Jan - 00:05:02 10° N 00:10:51 17° NE 00:16:31 10° E night (unlit)
23 Jan - 02:06:12 10° NW 02:15:47 90° E 02:25:04 10° SE visible
23 Jan - 04:15:05 10° W 04:20:30 17° SW 04:25:55 10° S visible
23 Jan - 12:51:21 10° SSW 13:00:14 40° SE 13:09:19 10° ENE daylight
23 Jan - 14:55:36 10° WSW 15:04:51 46° NW 15:14:22 10° NNE daylight
23 Jan - 23:40:34 10° NNE 23:45:34 15° NE 23:50:28 10° ENE night (unlit)
24 Jan - 01:41:03 10° NW 01:50:39 81° NE 01:59:55 10° SE visible
24 Jan - 03:49:08 10° W 03:55:17 19° SW 04:01:25 10° S visible
24 Jan - 12:26:28 10° SSW 12:35:02 35° SE 12:43:48 10° ENE daylight
24 Jan - 14:30:15 10° WSW 14:39:39 51° NW 14:49:20 10° NNE daylight
24 Jan - 23:16:21 10° NNE 23:20:17 13° NE 23:24:10 10° ENE night (unlit)
25 Jan - 01:15:55 10° NNW 01:25:30 73° NE 01:34:45 10° SE visible
25 Jan - 03:23:17 10° W 03:30:05 22° SW 03:36:49 10° S visible
25 Jan - 12:01:38 10° S 12:09:50 31° SE 12:18:14 10° ENE daylight
25 Jan - 14:04:56 10° SW 14:14:27 57° NW 14:24:17 10° NNE daylight
25 Jan - 22:52:40 10° NNE 22:54:59 11° NE 22:57:17 10° ENE night (unlit)
26 Jan - 00:50:49 10° NNW 01:00:21 66° NE 01:09:33 10° SE night (unlit)
26 Jan - 02:57:34 10° W 03:04:53 25° SW 03:12:07 10° S visible
26 Jan - 11:36:50 10° S 11:44:38 28° SE 11:52:35 10° ENE daylight
26 Jan - 13:39:41 10° SW 13:49:16 64° NW 13:59:12 10° NNE daylight
26 Jan - 15:52:11 10° WNW 15:54:47 11° NW 15:57:24 10° NNW daylight
27 Jan - 00:25:44 10° NNW 00:35:11 59° NE 00:44:19 10° SE night (unlit)
27 Jan - 02:31:55 10° WNW 02:39:42 29° SW 02:47:22 10° S visible
27 Jan - 11:12:07 10° S 11:19:25 24° SE 11:26:52 10° E daylight
27 Jan - 13:14:27 10° SW 13:24:05 71° NW 13:34:05 10° NNE daylight
27 Jan - 15:25:18 10° WNW 15:29:27 13° NW 15:33:39 10° NNW daylight
28 Jan - 00:00:41 10° NNW 00:10:02 52° NE 00:19:02 10° SE night (unlit)
28 Jan - 02:06:21 10° WNW 02:14:32 33° SW 02:22:34 10° S visible
28 Jan - 10:47:27 10° S 10:54:12 21° SE 11:01:04 10° E daylight
28 Jan - 12:49:15 10° SW 12:58:55 79° NW 13:08:56 10° NE daylight
28 Jan - 14:58:57 10° WNW 15:04:08 15° NW 15:09:24 10° NNW daylight
28 Jan - 23:35:39 10° NNW 23:44:52 47° NE 23:53:43 10° ESE night (unlit)
